Flag for France Weather past 2 weeks in Douai, France

Now
39 °F

Light rain. Broken clouds.


Feels Like: 34 °F
Forecast: 31 / 39 °F
Wind: 7 mph from Northwest

Location: Lille Airport

Current Time: Dec 29, 2014 at 2:13:26 PM

Latest Report: Dec 29, 2014 at 1:30 PM


Visibility: 3 mi

Pressure: 30.60 "Hg

Humidity: 93%

Dew point: 37 °F

Location of DouaiLocation

Historic Weather in Douai — Graph

°F

Douai temperature yesterday

Maximum temperature yesterday: 34 °F (at 12:00 AM)
Minimum temperature yesterday: 25 °F (at 10:00 PM)
Average temperature yesterday: 29 °F

Past Weeks' High & Low Weather Summary

 TemperatureHumidityPressure
High55 °F (Dec 18, 12:00 PM)100% (Dec 14, 1:00 PM)30.60 "Hg (Dec 14, 1:00 PM)
Low25 °F (Dec 28, 10:00 PM)51% (Dec 28, 2:30 PM)29.24 "Hg (Dec 27, 8:30 AM)
Average43 °F88%30.09 "Hg
* Reported Dec 14 1:00 PM — Dec 29 1:00 PM, Douai, Weather by CustomWeather, © 2014

Note: Actual official high and low records may vary slightly from our data, if they occured in-between our weather recording intervals... More about our weather records

Advertising

Douai weather history for previous 24 hours

 ConditionsComfort  
Time TempWeatherWind HumidityBarometerVisibility
1:00 PM
Dec 29
39 °FBroken clouds.9 mph93%30.60 "Hg5 mi
12:30 PM39 °FBroken clouds.13 mph93%30.60 "Hg5 mi
12:00 PM37 °FBroken clouds.12 mph93%30.60 "Hg5 mi
11:30 AM37 °FPartly sunny.13 mph93%30.60 "Hg5 mi
11:00 AM36 °FPartly sunny.10 mph93%30.60 "Hg5 mi
10:30 AM36 °FPartly sunny.12 mph93%30.60 "Hg5 mi
10:00 AM34 °FBroken clouds.9 mph93%30.60 "Hg4 mi
9:30 AM32 °FScattered clouds.13 mph100%30.60 "Hg5 mi
9:00 AM32 °FPassing clouds.12 mph93%30.57 "HgN/A
8:30 AM32 °FPassing clouds.13 mph93%30.57 "HgN/A
8:00 AM32 °FPassing clouds.13 mph87%30.57 "HgN/A
7:30 AM34 °FPassing clouds.10 mph81%30.57 "HgN/A
7:00 AM32 °FPassing clouds.9 mph87%30.57 "HgN/A
6:30 AM32 °FClear.9 mph80%30.57 "Hg10 mi
6:00 AM30 °FPassing clouds.9 mph86%30.57 "HgN/A
5:30 AM32 °FPassing clouds.9 mph87%30.57 "HgN/A
5:00 AM30 °FPassing clouds.8 mph93%30.60 "HgN/A
4:30 AM30 °FPassing clouds.10 mph86%30.60 "HgN/A
4:00 AM30 °FOvercast.9 mph86%30.60 "HgN/A
3:30 AM30 °FOvercast.6 mph86%30.60 "Hg6 mi
3:00 AM28 °FOvercast.6 mph86%30.60 "Hg5 mi
2:30 AM28 °FOvercast.6 mph86%30.60 "Hg4 mi
2:00 AM28 °FOvercast.3 mph86%30.60 "Hg4 mi
1:30 AM27 °FOvercast.5 mph93%30.60 "Hg4 mi
1:00 AM27 °FPassing clouds.5 mph86%30.60 "Hg4 mi
12:30 AM27 °FPartly cloudy.3 mph93%30.60 "Hg4 mi
12:00 AM27 °FIce fog.2 mph93%30.60 "Hg3 mi
11:30 PM
Dec 28
27 °FPassing clouds.2 mph93%30.60 "Hg4 mi
11:00 PM27 °FPassing clouds.3 mph93%30.60 "Hg4 mi
10:30 PM25 °FPassing clouds.5 mph86%30.60 "Hg5 mi
10:00 PM25 °FClear.2 mph93%30.60 "Hg5 mi
9:30 PM27 °FClear.2 mph86%30.60 "Hg10 mi
9:00 PM27 °FClear.No wind86%30.57 "Hg10 mi
8:30 PM28 °FClear.3 mph86%30.57 "Hg10 mi
8:00 PM28 °FClear.6 mph86%30.57 "Hg10 mi
7:30 PM30 °FPassing clouds.8 mph80%30.54 "HgN/A
7:00 PM30 °FPassing clouds.9 mph80%30.54 "HgN/A
6:30 PM28 °FPassing clouds.7 mph80%30.51 "HgN/A
6:00 PM30 °FClear.7 mph69%30.51 "Hg10 mi
5:30 PM30 °FClear.7 mph64%30.48 "Hg10 mi
5:00 PM30 °FClear.6 mph59%30.48 "Hg10 mi
4:30 PM32 °FSunny.5 mph51%30.45 "Hg10 mi
4:00 PM32 °FSunny.8 mph55%30.45 "Hg10 mi
3:30 PM32 °FSunny.12 mph51%30.42 "Hg10 mi
3:00 PM32 °FSunny.13 mph51%30.42 "Hg10 mi
2:30 PM32 °FSunny.12 mph51%30.42 "Hg10 mi
2:00 PM30 °FSunny.15 mph59%30.39 "Hg10 mi
Weather by CustomWeather, © 2014

See weather overviewHow to use our weather pages